Back to catalog

THOR ABLESTAR DEB

AliveLEO
NORAD 177·DEBRIS·🇺🇸 United States

Launched Jun 29, 1961 from Cape Canaveral Space Force Station

Loading…

Next Passes (next 24 hours)

TLE

FreshSource: Space-Track

Epoch: Sep 14, 2026, 14:41 UTC

1 00177U 61015BB  26257.61184457  .00000340  00000-0  20766-3 0  9997
2 00177  66.6553 334.3499 0103978  25.4094 335.2056 14.14892938353818

Track THOR ABLESTAR DEB in real time with AllMySat

Download on the App Store